Aeroporto :
LOGIN :

Iscrizione | Disclaimer

   EN    FR    IT 

 










Sommario :    VFR   VFR Marginale   IFR   IFR Intensivo   IFR Molto Intensivo
Visibilità : 
Base nubi : 
>= 8 km
>= 3000ft
5 / 8 km
1000 / 3000 ft
1500m / 5 km
500 / 1000 ft
800 / 1500m
200 / 500 ft
< 800m
< 200 ft
Simboli :   Temporali  Nebbia  Neve Forte  Precipitazioni Forti  Vento > 20 kt
SIGMETs :   Varie  Temporali  Ghiacco  Turbolenza  Onda orograficha  Ceneri Vulcaniche






- Altitudine del aeroporto : 37 ft
- Codice IATA : OLB


LIEO - Olbia Costa Smeralda

ULTIMO METAR :
  • 061220Z 06011KT CAVOK 31/09 Q1009

METARs OBSOLETI :
  • 061150Z 07011KT 030V110 CAVOK 31/10 Q1010
  • 061120Z 07010KT 030V100 CAVOK 31/09 Q1010
  • 061050Z 06009KT 030V090 CAVOK 32/09 Q1010
  • 061020Z 05009KT 010V090 CAVOK 31/10 Q1010
  • 060950Z 06008KT 360V110 CAVOK 32/10 Q1011

TAF TAF LIEO
Valido dal 06 a 12 ore il 07 a 12 ore UTC


061100Z 0612/0712 02012KT CAVOK
BECMG 0618/0620 23007KT



MetMap, La meteo Aeronautica in un colpo d'occhio ! - Copyright ORBIFLY Dicembre 2007 - Disclaimer

ORBIFLY MET'MAP TEAM :

Programmazione e sviluppo : Alexandra Zaïnal
Concezione : Baudouin d'Aumeries
Aiuto per la programmazione : Marc-Olivier Méhu
Supporto tecnico e logistico : Manuel Goepfert
Aiuto per la traduzione : Arnaldo La Scala

Contatto : metmap@orbifly.com




FONTI E CREDITI :

   NOAA